Location: Meanaryar
(48.4161°N, 4.7315°W)
Time: 12:53:14
(UTC+00:00)

Cosmos 1725 Rocket - Visible Passes

Search period start: 16 January 2021 00:00
Search period end: 26 January 2021 00:00
Orbit: 962 x 991 km, 82.9° (Epoch: 15 January)

Date Brightness Start Highest point End Pass type
(mag) Time Alt. Az. Time Alt. Az. Time Alt. Az.
16 Jan 6.2 03:25:02 20° E 03:25:02 20° E 03:29:19 10° NE visible
16 Jan 3.8 05:09:49 78° WNW 05:09:49 78° WNW 05:16:00 10° N visible
16 Jan 5.4 06:54:36 14° WNW 06:56:12 16° WNW 06:59:51 10° NNW visible
16 Jan 6.7 17:43:00 10° NW 17:45:57 14° WNW 17:48:53 10° WSW visible
17 Jan 5.6 03:51:40 30° ENE 03:51:40 30° ENE 03:55:44 10° NNE visible
17 Jan 4.3 05:36:24 44° NW 05:36:24 44° NW 05:41:30 10° N visible
18 Jan 5.2 04:17:57 36° NE 04:17:57 36° NE 04:21:44 10° NNE visible
18 Jan 4.9 06:02:40 27° NW 06:02:40 27° NW 06:06:45 10° N visible
19 Jan 6.6 02:59:18 13° NE 02:59:18 13° NE 03:00:28 10° NE visible
19 Jan 5.0 04:44:01 35° N 04:44:01 35° N 04:47:29 10° N visible
19 Jan 5.4 06:28:44 17° NW 06:28:44 17° NW 06:31:38 10° NNW visible
20 Jan 6.2 03:25:16 18° NE 03:25:16 18° NE 03:27:04 10° NNE visible
20 Jan 5.1 05:09:58 29° NNW 05:09:58 29° NNW 05:13:01 10° N visible
20 Jan 5.8 06:54:40 10° NW 06:54:40 10° NW 06:54:53 10° NW visible
21 Jan 5.9 03:51:07 21° NNE 03:51:07 21° NNE 03:53:08 10° NNE visible
21 Jan 5.4 05:35:50 22° NNW 05:35:50 22° NNW 05:38:20 10° N visible
22 Jan 5.8 04:16:55 22° NNE 04:16:55 22° NNE 04:18:56 10° N visible
22 Jan 5.7 06:01:37 15° NNW 06:01:37 15° NNW 06:03:20 10° NNW visible
23 Jan 6.7 02:57:58 12° NNE 02:57:58 12° NNE 02:58:22 10° NNE visible
23 Jan 5.7 04:42:39 20° N 04:42:39 20° N 04:44:32 10° N visible
23 Jan 5.9 06:27:21 10° NW 06:27:21 10° NW 06:27:25 10° NNW visible
24 Jan 6.4 03:23:39 14° NNE 03:23:39 14° NNE 03:24:32 10° NNE visible
24 Jan 5.8 05:08:21 17° NNW 05:08:21 17° NNW 05:09:55 10° N visible
25 Jan 6.2 03:49:18 16° NNE 03:49:18 16° NNE 03:50:24 10° NNE visible
25 Jan 5.9 05:34:00 13° NNW 05:34:00 13° NNW 05:35:00 10° NNW visible
